,,PressureMeas_1m,,PRMeasQMR101_1,,RHStat155_1m_1,,SRMeasQMS101R_1m,,TAStat155_1m_1,,GenWind_1,,GenWind_1,
2017-06-22, 07:00:06,VALID,917.975,VALID,0.0,VALID,97.835,VALID,105.399,VALID,18.255,VALID,150.0,VALID,0.29,
2017-06-22, 07:01:06,VALID,917.988,VALID,0.0,VALID,97.752,VALID,108.46,VALID,18.301,VALID,154.0,VALID,0.27,
2017-06-22, 07:02:06,VALID,918.003,VALID,0.0,VALID,97.676,VALID,111.563,VALID,18.359,VALID,155.0,VALID,0.22,
2017-06-22, 07:03:06,VALID,917.989,VALID,0.0,VALID,97.744,VALID,114.361,VALID,18.449,VALID,147.0,VALID,0.41,
2017-06-22, 07:04:06,VALID,917.985,VALID,0.0,VALID,97.461,VALID,117.056,VALID,18.443,VALID,132.0,VALID,0.758,
2017-06-22, 07:05:06,VALID,917.983,VALID,0.0,VALID,97.258,VALID,119.932,VALID,18.481,VALID,127.0,VALID,0.757,
2017-06-22, 07:06:06,VALID,917.99,VALID,0.0,VALID,97.064,VALID,122.944,VALID,18.51,VALID,132.0,VALID,0.838,
2017-06-22, 07:07:06,VALID,918.008,VALID,0.0,VALID,96.93,VALID,125.97,VALID,18.557,VALID,130.0,VALID,0.559,
2017-06-22, 07:08:06,VALID,918.014,VALID,0.0,VALID,96.822,VALID,129.18,VALID,18.625,VALID,107.0,VALID,0.41,
2017-06-22, 07:09:06,VALID,918.021,VALID,0.0,VALID,96.984,VALID,132.645,VALID,18.751,VALID,105.0,VALID,0.435,
2017-06-22, 07:10:06,VALID,918.027,VALID,0.0,VALID,96.534,VALID,135.947,VALID,18.776,VALID,107.0,VALID,0.722,
2017-06-22, 07:11:06,VALID,918.031,VALID,0.0,VALID,95.874,VALID,139.244,VALID,18.753,VALID,115.0,VALID,0.983,
2017-06-22, 07:12:06,VALID,918.039,VALID,0.0,VALID,95.533,VALID,142.536,VALID,18.745,VALID,121.0,VALID,1.106,
2017-06-22, 07:13:06,VALID,918.052,VALID,0.0,VALID,95.643,VALID,145.622,VALID,18.772,VALID,122.0,VALID,1.099,
2017-06-22, 07:14:06,VALID,918.053,VALID,0.0,VALID,95.804,VALID,148.6,VALID,18.813,VALID,107.0,VALID,0.816,
2017-06-22, 07:15:06,VALID,918.063,VALID,0.0,VALID,95.903,VALID,152.034,VALID,18.853,VALID,101.0,VALID,1.021,
2017-06-22, 07:16:06,VALID,918.076,VALID,0.0,VALID,95.613,VALID,155.275,VALID,18.858,VALID,90.0,VALID,1.098,
2017-06-22, 07:17:06,VALID,918.077,VALID,0.0,VALID,95.382,VALID,158.569,VALID,18.861,VALID,82.0,VALID,0.984,
2017-06-22, 07:18:06,VALID,918.088,VALID,0.0,VALID,95.659,VALID,161.87,VALID,18.921,VALID,95.0,VALID,0.754,
2017-06-22, 07:19:06,VALID,918.11,VALID,0.0,VALID,95.641,VALID,165.406,VALID,18.992,VALID,97.0,VALID,0.764,
2017-06-22, 07:20:06,VALID,918.105,VALID,0.0,VALID,95.239,VALID,168.822,VALID,19.02,VALID,95.0,VALID,1.102,
2017-06-22, 07:21:06,VALID,918.109,VALID,0.0,VALID,95.195,VALID,171.86,VALID,19.035,VALID,86.0,VALID,1.234,
2017-06-22, 07:22:06,VALID,918.143,VALID,0.0,VALID,95.293,VALID,174.897,VALID,19.048,VALID,89.0,VALID,1.325,
2017-06-22, 07:23:06,VALID,918.164,VALID,0.0,VALID,94.587,VALID,178.819,VALID,18.991,VALID,99.0,VALID,1.527,
2017-06-22, 07:24:06,VALID,918.186,VALID,0.0,VALID,94.425,VALID,182.266,VALID,18.982,VALID,101.0,VALID,1.41,
2017-06-22, 07:25:06,VALID,918.203,VALID,0.0,VALID,94.416,VALID,185.783,VALID,18.992,VALID,101.0,VALID,1.489,
2017-06-22, 07:26:06,VALID,918.24,VALID,0.0,VALID,93.802,VALID,189.492,VALID,18.999,VALID,102.0,VALID,1.396,
2017-06-22, 07:27:06,VALID,918.242,VALID,0.0,VALID,94.236,VALID,192.982,VALID,19.048,VALID,95.0,VALID,1.356,
2017-06-22, 07:28:06,VALID,918.246,VALID,0.0,VALID,94.412,VALID,196.273,VALID,19.1,VALID,98.0,VALID,1.203,
2017-06-22, 07:29:06,VALID,918.254,VALID,0.0,VALID,94.623,VALID,199.717,VALID,19.155,VALID,103.0,VALID,1.353,
2017-06-22, 07:30:06,VALID,918.248,VALID,0.0,VALID,94.717,VALID,203.01,VALID,19.207,VALID,101.0,VALID,1.375,
2017-06-22, 07:31:06,VALID,918.24,VALID,0.0,VALID,94.717,VALID,206.624,VALID,19.275,VALID,99.0,VALID,1.29,
2017-06-22, 07:32:06,VALID,918.234,VALID,0.0,VALID,93.919,VALID,209.081,VALID,19.267,VALID,101.0,VALID,1.85,
2017-06-22, 07:33:06,VALID,918.241,VALID,0.0,VALID,93.348,VALID,211.208,VALID,19.23,VALID,101.0,VALID,1.527,
2017-06-22, 07:34:06,VALID,918.233,VALID,0.0,VALID,93.86,VALID,217.331,VALID,19.273,VALID,108.0,VALID,1.633,
2017-06-22, 07:35:06,VALID,918.235,VALID,0.0,VALID,93.294,VALID,221.426,VALID,19.301,VALID,117.0,VALID,1.34,
2017-06-22, 07:36:06,VALID,918.248,VALID,0.0,VALID,93.713,VALID,225.001,VALID,19.377,VALID,109.0,VALID,1.574,
2017-06-22, 07:37:06,VALID,918.251,VALID,0.0,VALID,93.02,VALID,228.662,VALID,19.41,VALID,107.0,VALID,1.661,
2017-06-22, 07:38:06,VALID,918.293,VALID,0.0,VALID,93.108,VALID,232.275,VALID,19.441,VALID,101.0,VALID,1.538,
2017-06-22, 07:39:06,VALID,918.321,VALID,0.0,VALID,93.029,VALID,235.836,VALID,19.462,VALID,114.0,VALID,1.362,
2017-06-22, 07:40:06,VALID,918.339,VALID,0.0,VALID,92.883,VALID,239.428,VALID,19.49,VALID,118.0,VALID,1.202,
2017-06-22, 07:41:06,VALID,918.374,VALID,0.0,VALID,92.605,VALID,243.072,VALID,19.544,VALID,120.0,VALID,1.185,
2017-06-22, 07:42:06,VALID,918.388,VALID,0.0,VALID,92.804,VALID,246.68,VALID,19.648,VALID,126.0,VALID,0.88,
2017-06-22, 07:43:06,VALID,918.394,VALID,0.0,VALID,92.614,VALID,250.359,VALID,19.758,VALID,134.0,VALID,1.114,
2017-06-22, 07:44:06,VALID,918.404,VALID,0.0,VALID,91.35,VALID,254.297,VALID,19.764,VALID,125.0,VALID,1.301,
2017-06-22, 07:45:06,VALID,918.399,VALID,0.0,VALID,91.907,VALID,257.902,VALID,19.805,VALID,117.0,VALID,1.045,
2017-06-22, 07:46:06,VALID,918.399,VALID,0.0,VALID,92.012,VALID,261.528,VALID,19.891,VALID,154.0,VALID,1.313,
2017-06-22, 07:47:06,VALID,918.405,VALID,0.0,VALID,90.924,VALID,265.112,VALID,19.838,VALID,152.0,VALID,1.525,
2017-06-22, 07:48:06,VALID,918.41,VALID,0.0,VALID,91.221,VALID,268.941,VALID,19.745,VALID,153.0,VALID,1.388,
2017-06-22, 07:49:06,VALID,918.41,VALID,0.0,VALID,91.466,VALID,272.726,VALID,19.689,VALID,160.0,VALID,1.134,
2017-06-22, 07:50:06,VALID,918.411,VALID,0.0,VALID,91.995,VALID,276.561,VALID,19.733,VALID,149.0,VALID,1.258,
2017-06-22, 07:51:06,VALID,918.412,VALID,0.0,VALID,91.444,VALID,280.439,VALID,19.752,VALID,149.0,VALID,1.579,
2017-06-22, 07:52:06,VALID,918.424,VALID,0.0,VALID,90.796,VALID,284.248,VALID,19.725,VALID,146.0,VALID,1.592,
2017-06-22, 07:53:06,VALID,918.433,VALID,0.0,VALID,91.59,VALID,288.221,VALID,19.733,VALID,142.0,VALID,1.288,
2017-06-22, 07:54:06,VALID,918.423,VALID,0.0,VALID,91.745,VALID,291.938,VALID,19.784,VALID,145.0,VALID,1.346,
2017-06-22, 07:55:06,VALID,918.424,VALID,0.0,VALID,91.003,VALID,295.779,VALID,19.798,VALID,146.0,VALID,1.63,
2017-06-22, 07:56:06,VALID,918.422,VALID,0.0,VALID,90.697,VALID,299.731,VALID,19.792,VALID,147.0,VALID,1.454,
2017-06-22, 07:57:06,VALID,918.43,VALID,0.0,VALID,90.95,VALID,303.696,VALID,19.818,VALID,150.0,VALID,1.568,
2017-06-22, 07:58:06,VALID,918.439,VALID,0.0,VALID,90.449,VALID,306.297,VALID,19.842,VALID,151.0,VALID,1.564,
2017-06-22, 07:59:06,VALID,918.471,VALID,0.0,VALID,90.591,VALID,311.572,VALID,19.918,VALID,153.0,VALID,1.558,
2017-06-22, 08:00:06,VALID,918.5,VALID,0.0,VALID,89.753,VALID,306.11,VALID,19.966,VALID,152.0,VALID,1.424,
2017-06-22, 08:01:06,VALID,918.525,VALID,0.0,VALID,89.391,VALID,303.524,VALID,20.022,VALID,149.0,VALID,1.611,
2017-06-22, 08:02:06,VALID,918.568,VALID,0.0,VALID,88.777,VALID,319.088,VALID,20.092,VALID,152.0,VALID,1.37,
2017-06-22, 08:03:06,VALID,918.588,VALID,0.0,VALID,89.533,VALID,325.512,VALID,20.222,VALID,155.0,VALID,0.927,
2017-06-22, 08:04:06,VALID,918.598,VALID,0.0,VALID,88.492,VALID,329.181,VALID,20.315,VALID,144.0,VALID,1.472,
2017-06-22, 08:05:06,VALID,918.594,VALID,0.0,VALID,88.933,VALID,332.559,VALID,20.371,VALID,135.0,VALID,1.301,
2017-06-22, 08:06:06,VALID,918.587,VALID,0.0,VALID,88.617,VALID,338.471,VALID,20.433,VALID,132.0,VALID,1.333,
2017-06-22, 08:07:06,VALID,918.598,VALID,0.0,VALID,88.816,VALID,342.509,VALID,20.499,VALID,133.0,VALID,1.091,
2017-06-22, 08:08:06,VALID,918.612,VALID,0.0,VALID,88.552,VALID,346.62,VALID,20.572,VALID,130.0,VALID,1.054,
2017-06-22, 08:09:06,VALID,918.617,VALID,0.0,VALID,87.778,VALID,351.002,VALID,20.629,VALID,152.0,VALID,1.21,
2017-06-22, 08:10:06,VALID,918.63,VALID,0.0,VALID,88.376,VALID,354.589,VALID,20.68,VALID,148.0,VALID,0.797,
2017-06-22, 08:11:06,VALID,918.638,VALID,0.0,VALID,89.279,VALID,359.054,VALID,20.773,VALID,158.0,VALID,0.764,
2017-06-22, 08:12:06,VALID,918.649,VALID,0.0,VALID,87.949,VALID,363.672,VALID,20.847,VALID,148.0,VALID,1.095,
2017-06-22, 08:13:06,VALID,918.651,VALID,0.0,VALID,87.549,VALID,368.205,VALID,20.903,VALID,149.0,VALID,0.807,
2017-06-22, 08:14:06,VALID,918.648,VALID,0.0,VALID,87.885,VALID,372.105,VALID,20.971,VALID,101.0,VALID,0.464,
2017-06-22, 08:15:06,VALID,918.645,VALID,0.0,VALID,89.234,VALID,376.634,VALID,21.165,VALID,63.0,VALID,0.951,
2017-06-22, 08:16:06,VALID,918.645,VALID,0.0,VALID,88.249,VALID,380.32,VALID,21.429,VALID,66.0,VALID,1.173,
2017-06-22, 08:17:06,VALID,918.66,VALID,0.0,VALID,83.421,VALID,385.31,VALID,21.507,VALID,86.0,VALID,0.794,
2017-06-22, 08:18:06,VALID,918.675,VALID,0.0,VALID,84.793,VALID,388.367,VALID,21.546,VALID,63.0,VALID,0.945,
2017-06-22, 08:19:06,VALID,918.693,VALID,0.0,VALID,84.647,VALID,392.095,VALID,21.707,VALID,55.0,VALID,1.094,
2017-06-22, 08:20:06,VALID,918.724,VALID,0.0,VALID,83.341,VALID,398.07,VALID,21.811,VALID,111.0,VALID,0.748,
2017-06-22, 08:21:06,VALID,918.732,VALID,0.0,VALID,82.003,VALID,401.412,VALID,21.859,VALID,122.0,VALID,1.011,
2017-06-22, 08:22:06,VALID,918.736,VALID,0.0,VALID,81.809,VALID,403.786,VALID,21.877,VALID,123.0,VALID,0.993,
2017-06-22, 08:23:06,VALID,918.753,VALID,0.0,VALID,82.122,VALID,407.169,VALID,21.854,VALID,112.0,VALID,0.841,
2017-06-22, 08:24:06,VALID,918.753,VALID,0.0,VALID,83.033,VALID,410.758,VALID,21.888,VALID,117.0,VALID,1.003,
2017-06-22, 08:25:06,VALID,918.759,VALID,0.0,VALID,82.267,VALID,414.524,VALID,21.888,VALID,130.0,VALID,0.55,
2017-06-22, 08:26:06,VALID,918.776,VALID,0.0,VALID,82.23,VALID,417.54,VALID,21.99,VALID,163.0,VALID,0.659,
2017-06-22, 08:27:06,VALID,918.786,VALID,0.0,VALID,82.345,VALID,424.251,VALID,22.094,VALID,132.0,VALID,0.483,
2017-06-22, 08:28:06,VALID,918.799,VALID,0.0,VALID,80.414,VALID,428.903,VALID,22.255,VALID,114.0,VALID,0.575,
2017-06-22, 08:29:06,VALID,918.799,VALID,0.0,VALID,78.531,VALID,433.058,VALID,22.364,VALID,146.0,VALID,0.386,
2017-06-22, 08:30:06,VALID,918.809,VALID,0.0,VALID,79.1,VALID,436.712,VALID,22.482,VALID,138.0,VALID,0.948,
2017-06-22, 08:31:06,VALID,918.799,VALID,0.0,VALID,77.853,VALID,440.236,VALID,22.352,VALID,146.0,VALID,0.686,
2017-06-22, 08:32:06,VALID,918.778,VALID,0.0,VALID,78.326,VALID,443.502,VALID,22.256,VALID,146.0,VALID,0.396,
2017-06-22, 08:33:06,VALID,918.778,VALID,0.0,VALID,78.638,VALID,446.983,VALID,22.275,VALID,123.0,VALID,0.414,
2017-06-22, 08:34:06,VALID,918.764,VALID,0.0,VALID,77.959,VALID,449.863,VALID,22.445,VALID,109.0,VALID,0.323,
2017-06-22, 08:35:06,VALID,918.782,VALID,0.0,VALID,78.005,VALID,452.983,VALID,22.626,VALID,117.0,VALID,0.439,
2017-06-22, 08:36:06,VALID,918.794,VALID,0.0,VALID,77.919,VALID,456.344,VALID,22.713,VALID,93.0,VALID,0.444,
2017-06-22, 08:37:06,VALID,918.811,VALID,0.0,VALID,78.512,VALID,459.562,VALID,22.721,VALID,104.0,VALID,0.36,
2017-06-22, 08:38:06,VALID,918.824,VALID,0.0,VALID,79.634,VALID,462.821,VALID,22.894,VALID,43.0,VALID,0.796,
2017-06-22, 08:39:06,VALID,918.837,VALID,0.0,VALID,78.296,VALID,466.031,VALID,23.079,VALID,18.0,VALID,0.436,
2017-06-22, 08:40:06,VALID,918.833,VALID,0.0,VALID,77.434,VALID,468.841,VALID,23.231,VALID,30.0,VALID,0.609,
2017-06-22, 08:41:06,VALID,918.826,VALID,0.0,VALID,75.558,VALID,471.795,VALID,23.397,VALID,56.0,VALID,0.773,
2017-06-22, 08:42:06,VALID,918.813,VALID,0.0,VALID,74.355,VALID,475.259,VALID,23.495,VALID,64.0,VALID,0.534,
2017-06-22, 08:43:06,VALID,918.8,VALID,0.0,VALID,74.396,VALID,478.346,VALID,23.494,VALID,62.0,VALID,0.569,
2017-06-22, 08:44:06,VALID,918.802,VALID,0.0,VALID,74.357,VALID,481.594,VALID,23.537,VALID,56.0,VALID,0.109,
2017-06-22, 08:45:06,VALID,918.797,VALID,0.0,VALID,74.955,VALID,484.863,VALID,23.7,VALID,59.0,VALID,0.042,
2017-06-22, 08:46:06,VALID,918.799,VALID,0.0,VALID,74.517,VALID,488.088,VALID,23.871,VALID,100.0,VALID,0.073,
2017-06-22, 08:47:06,VALID,918.807,VALID,0.0,VALID,73.539,VALID,491.371,VALID,24.037,VALID,106.0,VALID,0.0,
2017-06-22, 08:48:06,VALID,918.806,VALID,0.0,VALID,73.339,VALID,494.454,VALID,24.217,VALID,109.0,VALID,0.325,
2017-06-22, 08:49:06,VALID,918.81,VALID,0.0,VALID,73.472,VALID,497.391,VALID,24.083,VALID,90.0,VALID,0.492,
2017-06-22, 08:50:06,VALID,918.824,VALID,0.0,VALID,73.651,VALID,500.908,VALID,23.876,VALID,153.0,VALID,0.258,
2017-06-22, 08:51:06,VALID,918.828,VALID,0.0,VALID,73.608,VALID,505.134,VALID,23.961,VALID,124.0,VALID,0.151,
2017-06-22, 08:52:06,VALID,918.855,VALID,0.0,VALID,73.005,VALID,508.538,VALID,24.142,VALID,159.0,VALID,0.432,
2017-06-22, 08:53:06,VALID,918.874,VALID,0.0,VALID,73.511,VALID,511.739,VALID,24.151,VALID,165.0,VALID,0.161,
2017-06-22, 08:54:06,VALID,918.895,VALID,0.0,VALID,73.149,VALID,514.066,VALID,24.372,VALID,122.0,VALID,0.069,
2017-06-22, 08:55:06,VALID,918.904,VALID,0.0,VALID,73.053,VALID,517.5,VALID,24.539,VALID,47.0,VALID,0.265,
2017-06-22, 08:56:06,VALID,918.906,VALID,0.0,VALID,74.367,VALID,520.736,VALID,24.753,VALID,34.0,VALID,0.021,
2017-06-22, 08:57:06,VALID,918.904,VALID,0.0,VALID,72.242,VALID,524.449,VALID,25.055,VALID,218.0,VALID,0.205,
2017-06-22, 08:58:06,VALID,918.888,VALID,0.0,VALID,72.032,VALID,527.926,VALID,24.883,VALID,262.0,VALID,0.277,
2017-06-22, 08:59:06,VALID,918.884,VALID,0.0,VALID,72.666,VALID,531.067,VALID,24.477,VALID,265.0,VALID,0.411,
2017-06-22, 09:00:06,VALID,918.854,VALID,0.0,VALID,74.032,VALID,534.452,VALID,24.168,VALID,274.0,VALID,0.204,
2017-06-22, 09:01:06,VALID,918.839,VALID,0.0,VALID,74.971,VALID,537.712,VALID,23.981,VALID,272.0,VALID,0.511,
2017-06-22, 09:02:06,VALID,918.832,VALID,0.0,VALID,74.317,VALID,540.563,VALID,23.844,VALID,253.0,VALID,0.48,
2017-06-22, 09:03:06,VALID,918.833,VALID,0.0,VALID,74.788,VALID,544.44,VALID,23.75,VALID,262.0,VALID,0.332,
2017-06-22, 09:04:06,VALID,918.822,VALID,0.0,VALID,76.391,VALID,548.327,VALID,23.774,VALID,303.0,VALID,0.266,
2017-06-22, 09:05:06,VALID,918.82,VALID,0.0,VALID,75.998,VALID,551.884,VALID,23.943,VALID,307.0,VALID,0.427,
2017-06-22, 09:06:06,VALID,918.816,VALID,0.0,VALID,73.365,VALID,555.964,VALID,24.016,VALID,304.0,VALID,0.63,
2017-06-22, 09:07:06,VALID,918.812,VALID,0.0,VALID,73.023,VALID,558.939,VALID,23.857,VALID,307.0,VALID,0.642,
2017-06-22, 09:08:06,VALID,918.813,VALID,0.0,VALID,73.95,VALID,561.586,VALID,23.725,VALID,309.0,VALID,0.577,
2017-06-22, 09:09:06,VALID,918.817,VALID,0.0,VALID,74.616,VALID,564.968,VALID,23.767,VALID,241.0,VALID,0.595,
2017-06-22, 09:10:06,VALID,918.819,VALID,0.0,VALID,74.205,VALID,568.157,VALID,23.763,VALID,242.0,VALID,0.367,
